Time,TemperatureF,DewpointF,PressureIn,WindDirection,WindDirectionDegrees,WindSpeedMPH,WindSpeedGustMPH,Humidity,HourlyPrecipIn,Conditions,Clouds,dailyrainin,SoftwareType,DateUTC
2013-03-30 00:00:00,41.7,36.3,29.96,SSW,200,0.0,2.0,81,0.00,,,0.01,VWS V14.01,2013-03-30 04:00:00,
2013-03-30 00:05:00,41.5,36.1,29.96,SSW,200,0.0,1.0,81,0.00,,,0.00,VWS V14.01,2013-03-30 04:05:00,
2013-03-30 00:10:00,41.4,36.0,29.96,SSW,200,0.0,1.0,81,0.00,,,0.00,VWS V14.01,2013-03-30 04:10:00,
2013-03-30 00:15:00,41.2,35.8,29.96,SSW,200,0.0,1.0,81,0.00,,,0.00,VWS V14.01,2013-03-30 04:15:00,
2013-03-30 00:20:00,41.1,35.7,29.96,SSW,200,0.0,1.0,81,0.00,,,0.00,VWS V14.01,2013-03-30 04:20:00,
2013-03-30 00:25:00,41.1,35.7,29.96,SSW,200,0.0,1.0,81,0.00,,,0.00,VWS V14.01,2013-03-30 04:25:00,
2013-03-30 00:30:00,41.0,35.6,29.96,SSW,200,1.0,1.0,81,0.00,,,0.00,VWS V14.01,2013-03-30 04:30:00,
2013-03-30 00:35:00,41.0,35.6,29.96,SSW,200,0.0,0.0,81,0.00,,,0.00,VWS V14.01,2013-03-30 04:35:00,
2013-03-30 00:40:00,40.9,35.5,29.96,SSW,200,1.0,1.0,81,0.00,,,0.00,VWS V14.01,2013-03-30 04:40:00,
2013-03-30 00:45:00,40.8,35.1,29.96,SSW,200,0.0,1.0,80,0.00,,,0.00,VWS V14.01,2013-03-30 04:45:00,
2013-03-30 00:50:00,40.8,35.4,29.96,SSW,200,0.0,1.0,81,0.00,,,0.00,VWS V14.01,2013-03-30 04:50:00,
2013-03-30 00:55:00,40.7,35.0,29.96,SSW,200,0.0,1.0,80,0.00,,,0.00,VWS V14.01,2013-03-30 04:55:00,
2013-03-30 01:00:00,40.7,35.0,29.96,SSW,200,0.0,1.0,80,0.00,,,0.00,VWS V14.01,2013-03-30 05:00:00,
2013-03-30 01:05:00,40.7,35.0,29.96,SSW,200,0.0,1.0,80,0.00,,,0.00,VWS V14.01,2013-03-30 05:05:00,
2013-03-30 01:10:00,40.7,35.0,29.96,SSW,200,0.0,1.0,80,0.00,,,0.00,VWS V14.01,2013-03-30 05:10:00,
2013-03-30 01:15:00,40.8,35.1,29.96,SSW,200,2.0,2.0,80,0.00,,,0.00,VWS V14.01,2013-03-30 05:15:00,
2013-03-30 01:20:00,40.8,34.8,29.96,SSW,201,1.0,3.0,79,0.00,,,0.00,VWS V14.01,2013-03-30 05:20:00,
2013-03-30 01:25:00,41.0,35.0,29.96,SSW,201,1.0,3.0,79,0.00,,,0.00,VWS V14.01,2013-03-30 05:25:00,
2013-03-30 01:30:00,41.0,34.7,29.96,SSW,201,0.0,3.0,78,0.00,,,0.00,VWS V14.01,2013-03-30 05:30:00,
2013-03-30 01:35:00,41.1,34.5,29.96,SSW,201,0.0,1.0,77,0.00,,,0.00,VWS V14.01,2013-03-30 05:35:00,
2013-03-30 01:40:00,41.1,34.5,29.96,SSW,201,0.0,2.0,77,0.00,,,0.00,VWS V14.01,2013-03-30 05:40:00,
2013-03-30 01:45:00,41.1,34.5,29.96,SSW,201,0.0,2.0,77,0.00,,,0.00,VWS V14.01,2013-03-30 05:45:00,
2013-03-30 01:50:00,41.2,34.5,29.96,SSW,201,1.0,2.0,77,0.00,,,0.00,VWS V14.01,2013-03-30 05:50:00,
2013-03-30 01:55:00,41.3,34.7,29.97,SSW,201,1.0,2.0,77,0.00,,,0.00,VWS V14.01,2013-03-30 05:55:00,
2013-03-30 02:00:00,41.3,34.3,29.96,SSW,204,1.0,4.0,76,0.00,,,0.00,VWS V14.01,2013-03-30 06:00:00,
2013-03-30 02:05:00,41.4,34.4,29.96,SSW,207,0.0,1.0,76,0.00,,,0.00,VWS V14.01,2013-03-30 06:05:00,
2013-03-30 02:10:00,41.4,34.4,29.96,SSW,207,0.0,1.0,76,0.00,,,0.00,VWS V14.01,2013-03-30 06:10:00,
2013-03-30 02:15:00,41.4,34.4,29.96,SSW,207,0.0,1.0,76,0.00,,,0.00,VWS V14.01,2013-03-30 06:15:00,
2013-03-30 02:20:00,41.3,34.3,29.96,SSW,207,0.0,2.0,76,0.00,,,0.00,VWS V14.01,2013-03-30 06:20:00,
2013-03-30 02:25:00,41.3,34.3,29.97,SSW,207,0.0,2.0,76,0.00,,,0.00,VWS V14.01,2013-03-30 06:25:00,
2013-03-30 02:30:00,41.4,34.4,29.97,SSW,211,1.0,3.0,76,0.00,,,0.00,VWS V14.01,2013-03-30 06:30:00,
2013-03-30 02:35:00,41.5,34.5,29.97,SSW,211,0.0,2.0,76,0.00,,,0.00,VWS V14.01,2013-03-30 06:35:00,
2013-03-30 02:40:00,41.6,34.3,29.97,SSW,211,0.0,3.0,75,0.00,,,0.00,VWS V14.01,2013-03-30 06:40:00,
2013-03-30 02:45:00,41.6,34.3,29.97,SW,214,0.0,3.0,75,0.00,,,0.00,VWS V14.01,2013-03-30 06:45:00,
2013-03-30 02:50:00,41.7,34.4,29.97,SW,215,0.0,3.0,75,0.00,,,0.00,VWS V14.01,2013-03-30 06:50:00,
2013-03-30 02:55:00,41.7,34.4,29.97,SW,225,2.0,3.0,75,0.00,,,0.00,VWS V14.01,2013-03-30 06:55:00,
2013-03-30 03:00:00,41.7,34.4,29.97,NW,316,0.0,3.0,75,0.00,,,0.00,VWS V14.01,2013-03-30 07:00:00,
2013-03-30 03:05:00,41.8,34.5,29.96,NW,316,0.0,2.0,75,0.00,,,0.00,VWS V14.01,2013-03-30 07:05:00,
2013-03-30 03:10:00,41.8,34.5,29.96,NW,316,0.0,2.0,75,0.00,,,0.00,VWS V14.01,2013-03-30 07:10:00,
2013-03-30 03:15:00,41.8,34.5,29.96,NW,316,1.0,3.0,75,0.00,,,0.00,VWS V14.01,2013-03-30 07:15:00,
2013-03-30 03:20:00,41.9,34.6,29.96,NW,316,0.0,3.0,75,0.00,,,0.00,VWS V14.01,2013-03-30 07:20:00,
2013-03-30 03:25:00,41.9,34.6,29.96,NW,315,2.0,5.0,75,0.00,,,0.00,VWS V14.01,2013-03-30 07:25:00,
2013-03-30 03:30:00,41.9,34.6,29.96,NW,315,1.0,5.0,75,0.00,,,0.00,VWS V14.01,2013-03-30 07:30:00,
2013-03-30 03:35:00,41.9,34.6,29.96,NW,315,0.0,3.0,75,0.00,,,0.00,VWS V14.01,2013-03-30 07:35:00,
2013-03-30 03:40:00,41.9,34.6,29.96,NW,315,2.0,3.0,75,0.00,,,0.00,VWS V14.01,2013-03-30 07:40:00,
2013-03-30 03:45:00,41.8,34.5,29.96,NW,321,1.0,4.0,75,0.00,,,0.00,VWS V14.01,2013-03-30 07:45:00,
2013-03-30 03:50:00,41.8,34.5,29.96,NW,321,1.0,4.0,75,0.00,,,0.00,VWS V14.01,2013-03-30 07:50:00,
2013-03-30 03:55:00,41.7,34.4,29.96,NW,321,0.0,4.0,75,0.00,,,0.00,VWS V14.01,2013-03-30 07:55:00,
2013-03-30 04:00:00,41.7,34.7,29.96,NW,321,0.0,4.0,76,0.00,,,0.00,VWS V14.01,2013-03-30 08:00:00,
2013-03-30 04:05:00,41.6,34.6,29.96,NW,320,0.0,1.0,76,0.00,,,0.00,VWS V14.01,2013-03-30 08:05:00,
2013-03-30 04:10:00,41.5,34.5,29.96,NW,320,0.0,2.0,76,0.00,,,0.00,VWS V14.01,2013-03-30 08:10:00,
2013-03-30 04:15:00,41.5,34.5,29.96,NW,320,0.0,2.0,76,0.00,,,0.00,VWS V14.01,2013-03-30 08:15:00,
2013-03-30 04:20:00,41.6,34.6,29.96,NW,320,0.0,3.0,76,0.00,,,0.00,VWS V14.01,2013-03-30 08:20:00,
2013-03-30 04:25:00,41.6,34.6,29.96,NNW,333,0.0,4.0,76,0.00,,,0.00,VWS V14.01,2013-03-30 08:25:00,
2013-03-30 04:30:00,41.6,34.6,29.96,NNW,333,0.0,4.0,76,0.00,,,0.00,VWS V14.01,2013-03-30 08:30:00,
2013-03-30 04:35:00,41.6,34.6,29.96,NNW,333,1.0,2.0,76,0.00,,,0.00,VWS V14.01,2013-03-30 08:35:00,
2013-03-30 04:40:00,41.7,34.7,29.96,NNW,333,1.0,3.0,76,0.00,,,0.00,VWS V14.01,2013-03-30 08:40:00,
2013-03-30 04:45:00,41.7,34.7,29.97,NNW,333,1.0,3.0,76,0.00,,,0.00,VWS V14.01,2013-03-30 08:45:00,
2013-03-30 04:50:00,41.7,34.7,29.97,NNW,333,1.0,3.0,76,0.00,,,0.00,VWS V14.01,2013-03-30 08:50:00,
2013-03-30 04:55:00,41.7,34.7,29.97,NNW,333,0.0,3.0,76,0.00,,,0.00,VWS V14.01,2013-03-30 08:55:00,
2013-03-30 05:00:00,41.7,34.7,29.97,NNW,333,1.0,3.0,76,0.00,,,0.00,VWS V14.01,2013-03-30 09:00:00,
2013-03-30 05:05:00,41.6,34.6,29.96,NNW,333,0.0,2.0,76,0.00,,,0.00,VWS V14.01,2013-03-30 09:05:00,
2013-03-30 05:10:00,41.6,34.6,29.97,NNW,333,0.0,2.0,76,0.00,,,0.00,VWS V14.01,2013-03-30 09:10:00,
2013-03-30 05:15:00,41.5,34.8,29.97,NNW,333,0.0,2.0,77,0.00,,,0.00,VWS V14.01,2013-03-30 09:15:00,
2013-03-30 05:20:00,41.5,34.8,29.97,NNW,333,2.0,2.0,77,0.00,,,0.00,VWS V14.01,2013-03-30 09:20:00,
2013-03-30 05:25:00,41.4,34.7,29.97,NNW,333,1.0,2.0,77,0.00,,,0.00,VWS V14.01,2013-03-30 09:25:00,
2013-03-30 05:30:00,41.4,34.7,29.97,NNW,333,0.0,3.0,77,0.00,,,0.00,VWS V14.01,2013-03-30 09:30:00,
2013-03-30 05:34:00,41.3,34.3,29.97,NNW,333,0.0,3.0,76,0.00,,,0.00,VWS V14.01,2013-03-30 09:34:00,
2013-03-30 05:39:00,41.3,34.3,29.97,NNW,333,0.0,3.0,76,0.00,,,0.00,VWS V14.01,2013-03-30 09:39:00,
2013-03-30 05:44:00,41.3,34.3,29.97,NNW,333,1.0,3.0,76,0.00,,,0.00,VWS V14.01,2013-03-30 09:44:00,
2013-03-30 05:49:00,41.3,34.3,29.97,NNW,333,0.0,3.0,76,0.00,,,0.00,VWS V14.01,2013-03-30 09:49:00,
2013-03-30 05:54:00,41.2,34.2,29.97,NNW,333,0.0,3.0,76,0.00,,,0.00,VWS V14.01,2013-03-30 09:54:00,
2013-03-30 05:59:00,41.1,34.5,29.97,NNW,333,0.0,3.0,77,0.00,,,0.00,VWS V14.01,2013-03-30 09:59:00,
2013-03-30 06:00:00,41.1,34.5,29.97,NNW,333,0.0,3.0,77,0.00,,,0.00,VWS V14.01,2013-03-30 10:00:00,
2013-03-30 06:04:00,41.0,34.3,29.97,NNW,333,1.0,1.0,77,0.00,,,0.00,VWS V14.01,2013-03-30 10:04:00,
2013-03-30 06:09:00,40.9,34.3,29.98,NNW,333,0.0,1.0,77,0.00,,,0.00,VWS V14.01,2013-03-30 10:09:00,
2013-03-30 06:14:00,40.8,34.5,29.98,NNW,333,0.0,1.0,78,0.00,,,0.00,VWS V14.01,2013-03-30 10:14:00,
2013-03-30 06:19:00,40.7,34.4,29.98,NNW,333,0.0,2.0,78,0.00,,,0.00,VWS V14.01,2013-03-30 10:19:00,
2013-03-30 06:24:00,40.7,34.4,29.98,NNW,333,0.0,2.0,78,0.00,,,0.00,VWS V14.01,2013-03-30 10:24:00,
2013-03-30 06:29:00,40.7,34.4,29.98,NNW,333,0.0,2.0,78,0.00,,,0.00,VWS V14.01,2013-03-30 10:29:00,
2013-03-30 06:30:00,40.7,34.4,29.98,NNW,333,0.0,2.0,78,0.00,,,0.00,VWS V14.01,2013-03-30 10:30:00,
2013-03-30 06:34:00,40.7,34.4,29.98,NNW,333,0.0,1.0,78,0.00,,,0.00,VWS V14.01,2013-03-30 10:34:00,
2013-03-30 06:39:00,40.7,34.1,29.98,NNW,333,0.0,1.0,77,0.00,,,0.00,VWS V14.01,2013-03-30 10:39:00,
2013-03-30 06:44:00,40.7,34.1,29.98,NNW,333,0.0,1.0,77,0.00,,,0.00,VWS V14.01,2013-03-30 10:44:00,
2013-03-30 06:49:00,40.6,34.3,29.99,NNW,333,0.0,1.0,78,0.00,,,0.00,VWS V14.01,2013-03-30 10:49:00,
2013-03-30 06:54:00,40.6,34.3,29.99,NNW,333,0.0,1.0,78,0.00,,,0.00,VWS V14.01,2013-03-30 10:54:00,
2013-03-30 06:59:00,40.5,34.2,29.99,NNW,333,0.0,2.0,78,0.00,,,0.00,VWS V14.01,2013-03-30 10:59:00,
2013-03-30 07:00:00,40.5,34.2,29.99,NNW,333,0.0,2.0,78,0.00,,,0.00,VWS V14.01,2013-03-30 11:00:00,
2013-03-30 07:04:00,40.5,34.2,29.99,NNW,333,0.0,0.0,78,0.00,,,0.00,VWS V14.01,2013-03-30 11:04:00,
2013-03-30 07:09:00,40.5,34.2,29.99,NNW,333,0.0,3.0,78,0.00,,,0.00,VWS V14.01,2013-03-30 11:09:00,
2013-03-30 07:14:00,40.5,34.2,29.99,NNW,333,1.0,5.0,78,0.00,,,0.00,VWS V14.01,2013-03-30 11:14:00,
2013-03-30 07:19:00,40.5,34.2,29.99,NNW,333,0.0,5.0,78,0.00,,,0.00,VWS V14.01,2013-03-30 11:19:00,
2013-03-30 07:24:00,40.5,34.2,29.99,NNW,333,1.0,5.0,78,0.00,,,0.00,VWS V14.01,2013-03-30 11:24:00,
2013-03-30 07:29:00,40.5,34.2,30.00,NNW,333,0.0,5.0,78,0.00,,,0.00,VWS V14.01,2013-03-30 11:29:00,
2013-03-30 07:30:00,40.5,33.9,30.00,NNW,333,1.0,5.0,77,0.00,,,0.00,VWS V14.01,2013-03-30 11:30:00,
2013-03-30 07:34:00,40.5,33.9,30.00,NNW,333,0.0,1.0,77,0.00,,,0.00,VWS V14.01,2013-03-30 11:34:00,
2013-03-30 07:39:00,40.7,34.1,30.00,NNW,333,1.0,4.0,77,0.00,,,0.00,VWS V14.01,2013-03-30 11:39:00,
2013-03-30 07:44:00,40.9,34.3,30.00,NNW,333,1.0,4.0,77,0.00,,,0.00,VWS V14.01,2013-03-30 11:44:00,
2013-03-30 07:49:00,41.5,34.5,30.00,West,277,1.0,5.0,76,0.00,,,0.00,VWS V14.01,2013-03-30 11:49:00,
2013-03-30 07:54:00,42.0,34.3,30.00,West,264,1.0,5.0,74,0.00,,,0.00,VWS V14.01,2013-03-30 11:54:00,
2013-03-30 07:59:00,42.5,34.5,30.00,NW,312,2.0,5.0,73,0.00,,,0.00,VWS V14.01,2013-03-30 11:59:00,
2013-03-30 08:00:00,42.8,34.8,30.00,NW,312,0.0,5.0,73,0.00,,,0.00,VWS V14.01,2013-03-30 12:00:00,
2013-03-30 08:04:00,43.0,35.0,30.00,NW,312,1.0,4.0,73,0.00,,,0.00,VWS V14.01,2013-03-30 12:04:00,
2013-03-30 08:09:00,43.4,35.0,30.00,NW,312,1.0,4.0,72,0.00,,,0.00,VWS V14.01,2013-03-30 12:09:00,
2013-03-30 08:14:00,43.8,34.7,30.00,WNW,283,2.0,4.0,70,0.00,,,0.00,VWS V14.01,2013-03-30 12:14:00,
2013-03-30 08:19:00,44.2,34.7,30.00,NW,309,5.0,6.0,69,0.00,,,0.00,VWS V14.01,2013-03-30 12:19:00,
2013-03-30 08:24:00,44.5,34.6,30.00,West,277,2.0,6.0,68,0.00,,,0.00,VWS V14.01,2013-03-30 12:24:00,
2013-03-30 08:29:00,44.6,34.3,30.00,NNW,336,4.0,7.0,67,0.00,,,0.00,VWS V14.01,2013-03-30 12:29:00,
2013-03-30 08:30:00,44.6,34.0,30.00,WSW,253,1.0,7.0,66,0.00,,,0.00,VWS V14.01,2013-03-30 12:30:00,
2013-03-30 08:34:00,44.7,34.4,30.00,West,277,6.0,6.0,67,0.00,,,0.00,VWS V14.01,2013-03-30 12:34:00,
2013-03-30 08:39:00,44.9,34.2,30.00,NW,311,2.0,7.0,66,0.00,,,0.00,VWS V14.01,2013-03-30 12:39:00,
2013-03-30 08:44:00,45.4,34.7,30.00,NNW,344,1.0,7.0,66,0.00,,,0.00,VWS V14.01,2013-03-30 12:44:00,
2013-03-30 08:49:00,45.6,34.1,30.00,WNW,300,5.0,7.0,64,0.00,,,0.00,VWS V14.01,2013-03-30 12:49:00,
2013-03-30 08:54:00,45.7,34.2,30.00,North,5,2.0,7.0,64,0.00,,,0.00,VWS V14.01,2013-03-30 12:54:00,
2013-03-30 08:59:00,46.2,34.7,30.00,West,272,3.0,7.0,64,0.00,,,0.00,VWS V14.01,2013-03-30 12:59:00,
2013-03-30 09:00:00,46.3,34.4,30.00,WNW,294,1.0,7.0,63,0.00,,,0.00,VWS V14.01,2013-03-30 13:00:00,
2013-03-30 09:04:00,46.3,34.4,30.00,NW,317,1.0,6.0,63,0.00,,,0.00,VWS V14.01,2013-03-30 13:04:00,
2013-03-30 09:09:00,46.4,34.5,30.00,NW,318,1.0,7.0,63,0.00,,,0.00,VWS V14.01,2013-03-30 13:09:00,
2013-03-30 09:14:00,47.1,34.4,30.00,NNW,334,3.0,7.0,61,0.00,,,0.00,VWS V14.01,2013-03-30 13:14:00,
2013-03-30 09:19:00,47.3,34.5,30.00,NW,319,1.0,7.0,61,0.00,,,0.00,VWS V14.01,2013-03-30 13:19:00,
2013-03-30 09:24:00,47.9,34.7,30.00,NW,308,2.0,7.0,60,0.00,,,0.00,VWS V14.01,2013-03-30 13:24:00,
2013-03-30 09:29:00,47.9,34.3,30.00,NW,317,2.0,7.0,59,0.00,,,0.00,VWS V14.01,2013-03-30 13:29:00,
2013-03-30 09:30:00,48.0,34.4,30.00,NW,308,0.0,7.0,59,0.00,,,0.00,VWS V14.01,2013-03-30 13:30:00,
2013-03-30 09:34:00,48.2,34.6,30.00,NW,315,2.0,5.0,59,0.00,,,0.00,VWS V14.01,2013-03-30 13:34:00,
2013-03-30 09:39:00,48.6,34.9,30.00,West,279,5.0,8.0,59,0.00,,,0.00,VWS V14.01,2013-03-30 13:39:00,
2013-03-30 09:44:00,48.8,34.7,30.00,WNW,302,3.0,8.0,58,0.00,,,0.00,VWS V14.01,2013-03-30 13:44:00,
2013-03-30 09:49:00,48.7,34.6,30.00,NW,313,3.0,8.0,58,0.00,,,0.00,VWS V14.01,2013-03-30 13:49:00,
2013-03-30 09:54:00,48.6,34.1,30.00,WSW,240,2.0,8.0,57,0.00,,,0.00,VWS V14.01,2013-03-30 13:54:00,
2013-03-30 09:59:00,49.0,34.5,30.00,NE,36,1.0,8.0,57,0.00,,,0.00,VWS V14.01,2013-03-30 13:59:00,
2013-03-30 10:00:00,49.1,34.5,30.00,NE,38,3.0,8.0,57,0.00,,,0.00,VWS V14.01,2013-03-30 14:00:00,
2013-03-30 10:04:00,49.4,34.8,30.00,East,80,1.0,5.0,57,0.00,,,0.00,VWS V14.01,2013-03-30 14:04:00,
2013-03-30 10:09:00,49.9,34.4,30.00,North,11,2.0,9.0,55,0.00,,,0.00,VWS V14.01,2013-03-30 14:09:00,
2013-03-30 10:14:00,50.4,34.4,30.00,NNW,346,3.0,9.0,54,0.00,,,0.00,VWS V14.01,2013-03-30 14:14:00,
2013-03-30 10:19:00,50.9,35.8,29.99,WNW,290,0.0,9.0,56,0.00,,,0.00,VWS V14.01,2013-03-30 14:19:00,
2013-03-30 10:24:00,51.9,35.3,30.00,NE,35,1.0,9.0,53,0.00,,,0.00,VWS V14.01,2013-03-30 14:24:00,
2013-03-30 10:29:00,51.8,34.8,30.00,ENE,77,7.0,9.0,52,0.00,,,0.00,VWS V14.01,2013-03-30 14:29:00,
2013-03-30 10:30:00,51.8,34.8,30.00,NNE,32,2.0,9.0,52,0.00,,,0.00,VWS V14.01,2013-03-30 14:30:00,
2013-03-30 10:34:00,52.1,35.5,30.00,North,351,2.0,4.0,53,0.00,,,0.00,VWS V14.01,2013-03-30 14:34:00,
2013-03-30 10:39:00,52.2,35.1,30.00,NW,324,6.0,8.0,52,0.00,,,0.00,VWS V14.01,2013-03-30 14:39:00,
2013-03-30 10:44:00,52.0,34.5,30.00,NNW,347,2.0,8.0,51,0.00,,,0.00,VWS V14.01,2013-03-30 14:44:00,
2013-03-30 10:49:00,52.3,34.7,29.99,NNW,330,0.0,8.0,51,0.00,,,0.00,VWS V14.01,2013-03-30 14:49:00,
2013-03-30 10:54:00,51.6,33.6,29.99,WNW,294,0.0,8.0,50,0.00,,,0.00,VWS V14.01,2013-03-30 14:54:00,
2013-03-30 10:59:00,51.2,34.2,29.99,NW,317,0.0,8.0,52,0.00,,,0.00,VWS V14.01,2013-03-30 14:59:00,
2013-03-30 11:00:00,51.0,34.0,29.99,West,277,2.0,8.0,52,0.00,,,0.00,VWS V14.01,2013-03-30 15:00:00,
2013-03-30 11:04:00,50.9,33.9,29.99,North,355,1.0,6.0,52,0.00,,,0.00,VWS V14.01,2013-03-30 15:04:00,
2013-03-30 11:09:00,51.0,34.0,29.99,NNE,17,2.0,6.0,52,0.00,,,0.00,VWS V14.01,2013-03-30 15:09:00,
2013-03-30 11:14:00,51.5,34.5,29.99,NNE,21,1.0,6.0,52,0.00,,,0.00,VWS V14.01,2013-03-30 15:14:00,
2013-03-30 11:19:00,50.8,33.3,29.99,WNW,299,0.0,6.0,51,0.00,,,0.00,VWS V14.01,2013-03-30 15:19:00,
2013-03-30 11:24:00,50.6,33.2,29.99,NNE,30,2.0,6.0,51,0.00,,,0.00,VWS V14.01,2013-03-30 15:24:00,
2013-03-30 11:29:00,50.9,33.4,29.99,NW,313,2.0,6.0,51,0.00,,,0.00,VWS V14.01,2013-03-30 15:29:00,
2013-03-30 11:30:00,50.9,33.9,29.99,NW,313,0.0,6.0,52,0.00,,,0.00,VWS V14.01,2013-03-30 15:30:00,
2013-03-30 11:34:00,51.4,35.3,29.99,NW,313,2.0,2.0,54,0.00,,,0.00,VWS V14.01,2013-03-30 15:34:00,
2013-03-30 11:39:00,52.4,34.3,29.99,NNW,344,2.0,7.0,50,0.00,,,0.00,VWS V14.01,2013-03-30 15:39:00,
2013-03-30 11:44:00,52.7,33.6,29.98,NW,319,0.0,7.0,48,0.00,,,0.00,VWS V14.01,2013-03-30 15:44:00,
2013-03-30 11:49:00,52.8,32.1,29.98,NW,312,0.0,7.0,45,0.00,,,0.00,VWS V14.01,2013-03-30 15:49:00,
2013-03-30 11:54:00,52.6,33.5,29.98,ENE,74,4.0,7.0,48,0.00,,,0.00,VWS V14.01,2013-03-30 15:54:00,
2013-03-30 11:59:00,52.4,33.8,29.98,North,350,3.0,7.0,49,0.00,,,0.00,VWS V14.01,2013-03-30 15:59:00,
2013-03-30 12:00:00,52.3,33.7,29.98,NNW,348,0.0,7.0,49,0.00,,,0.00,VWS V14.01,2013-03-30 16:00:00,
2013-03-30 12:04:00,52.4,32.8,29.98,NNW,348,1.0,3.0,47,0.00,,,0.00,VWS V14.01,2013-03-30 16:04:00,
2013-03-30 12:09:00,52.3,32.7,29.98,NNW,342,1.0,3.0,47,0.00,,,0.00,VWS V14.01,2013-03-30 16:09:00,
2013-03-30 12:14:00,52.4,33.3,29.98,NNW,342,1.0,3.0,48,0.00,,,0.00,VWS V14.01,2013-03-30 16:14:00,
2013-03-30 12:19:00,53.6,33.3,29.98,WSW,256,1.0,4.0,46,0.00,,,0.00,VWS V14.01,2013-03-30 16:19:00,
2013-03-30 12:24:00,54.3,32.9,29.98,East,86,0.0,4.0,44,0.00,,,0.00,VWS V14.01,2013-03-30 16:24:00,
2013-03-30 12:29:00,54.0,31.5,29.97,NNE,12,2.0,7.0,42,0.00,,,0.00,VWS V14.01,2013-03-30 16:29:00,
2013-03-30 12:30:00,53.7,30.0,29.98,North,9,1.0,7.0,40,0.00,,,0.00,VWS V14.01,2013-03-30 16:30:00,
2013-03-30 12:34:00,53.4,30.3,29.97,NNE,13,1.0,2.0,41,0.00,,,0.00,VWS V14.01,2013-03-30 16:34:00,
2013-03-30 12:39:00,52.9,33.2,29.98,NNW,347,1.0,3.0,47,0.00,,,0.00,VWS V14.01,2013-03-30 16:39:00,
2013-03-30 12:44:00,52.6,33.5,29.98,NNW,346,2.0,3.0,48,0.00,,,0.00,VWS V14.01,2013-03-30 16:44:00,
2013-03-30 12:49:00,51.5,34.0,29.98,ESE,102,3.0,4.0,51,0.00,,,0.00,VWS V14.01,2013-03-30 16:49:00,
2013-03-30 12:54:00,51.0,34.5,29.97,SE,125,0.0,4.0,53,0.00,,,0.00,VWS V14.01,2013-03-30 16:54:00,
2013-03-30 12:59:00,50.4,34.9,29.98,ESE,121,1.0,4.0,55,0.00,,,0.00,VWS V14.01,2013-03-30 16:59:00,
2013-03-30 13:00:00,50.1,34.6,29.98,SE,132,3.0,4.0,55,0.00,,,0.00,VWS V14.01,2013-03-30 17:00:00,
2013-03-30 13:04:00,50.1,35.0,29.98,East,94,6.0,6.0,56,0.00,,,0.00,VWS V14.01,2013-03-30 17:04:00,
2013-03-30 13:09:00,50.0,33.6,29.97,SSE,156,3.0,7.0,53,0.00,,,0.00,VWS V14.01,2013-03-30 17:09:00,
2013-03-30 13:14:00,50.0,34.0,29.97,SE,136,2.0,7.0,54,0.00,,,0.00,VWS V14.01,2013-03-30 17:14:00,
2013-03-30 13:19:00,50.2,33.7,29.98,NE,48,1.0,7.0,53,0.00,,,0.00,VWS V14.01,2013-03-30 17:19:00,
2013-03-30 13:24:00,50.1,34.1,29.97,East,88,2.0,7.0,54,0.00,,,0.00,VWS V14.01,2013-03-30 17:24:00,
2013-03-30 13:29:00,49.7,34.2,29.97,ENE,74,2.0,7.0,55,0.00,,,0.00,VWS V14.01,2013-03-30 17:29:00,
2013-03-30 13:30:00,49.6,34.6,29.97,NNE,24,1.0,7.0,56,0.00,,,0.00,VWS V14.01,2013-03-30 17:30:00,
2013-03-30 13:34:00,49.9,35.3,29.97,ESE,107,3.0,4.0,57,0.00,,,0.00,VWS V14.01,2013-03-30 17:34:00,
2013-03-30 13:39:00,49.6,33.2,29.97,SE,141,1.0,7.0,53,0.00,,,0.00,VWS V14.01,2013-03-30 17:39:00,
2013-03-30 13:44:00,49.6,34.1,29.98,ESE,117,0.0,7.0,55,0.00,,,0.00,VWS V14.01,2013-03-30 17:44:00,
2013-03-30 13:49:00,49.4,33.9,29.98,SSW,200,0.0,7.0,55,0.00,,,0.00,VWS V14.01,2013-03-30 17:49:00,
2013-03-30 13:54:00,49.2,33.7,29.97,South,180,3.0,7.0,55,0.00,,,0.00,VWS V14.01,2013-03-30 17:54:00,
2013-03-30 13:59:00,49.2,34.2,29.97,South,180,2.0,7.0,56,0.00,,,0.00,VWS V14.01,2013-03-30 17:59:00,
2013-03-30 14:00:00,49.4,34.8,29.97,SE,128,2.0,7.0,57,0.00,,,0.00,VWS V14.01,2013-03-30 18:00:00,
2013-03-30 14:04:00,49.4,34.4,29.97,South,173,2.0,4.0,56,0.00,,,0.00,VWS V14.01,2013-03-30 18:04:00,
2013-03-30 14:09:00,49.4,34.8,29.97,SW,232,4.0,4.0,57,0.00,,,0.00,VWS V14.01,2013-03-30 18:09:00,
2013-03-30 14:14:00,49.4,34.8,29.97,SSW,209,3.0,7.0,57,0.00,,,0.00,VWS V14.01,2013-03-30 18:14:00,
2013-03-30 14:19:00,49.4,35.7,29.97,ESE,113,2.0,7.0,59,0.00,,,0.00,VWS V14.01,2013-03-30 18:19:00,
2013-03-30 14:24:00,49.7,36.8,29.97,SSE,157,1.0,7.0,61,0.00,,,0.00,VWS V14.01,2013-03-30 18:24:00,
2013-03-30 14:29:00,50.0,35.4,29.97,SW,216,2.0,7.0,57,0.00,,,0.00,VWS V14.01,2013-03-30 18:29:00,
2013-03-30 14:30:00,50.3,35.2,29.97,SE,132,2.0,7.0,56,0.00,,,0.00,VWS V14.01,2013-03-30 18:30:00,
2013-03-30 14:34:00,50.6,35.5,29.97,SSW,211,3.0,8.0,56,0.00,,,0.00,VWS V14.01,2013-03-30 18:34:00,
2013-03-30 14:39:00,50.7,35.6,29.97,SSW,204,2.0,8.0,56,0.00,,,0.00,VWS V14.01,2013-03-30 18:39:00,
2013-03-30 14:44:00,50.1,35.5,29.97,SSW,198,2.0,9.0,57,0.00,,,0.00,VWS V14.01,2013-03-30 18:44:00,
2013-03-30 14:49:00,50.6,35.9,29.97,South,173,2.0,9.0,57,0.00,,,0.00,VWS V14.01,2013-03-30 18:49:00,
2013-03-30 14:54:00,50.9,34.9,29.97,SSW,194,1.0,9.0,54,0.00,,,0.00,VWS V14.01,2013-03-30 18:54:00,
2013-03-30 14:59:00,51.4,35.8,29.97,South,178,1.0,9.0,55,0.00,,,0.00,VWS V14.01,2013-03-30 18:59:00,
2013-03-30 15:00:00,51.7,36.1,29.97,SW,227,1.0,9.0,55,0.00,,,0.00,VWS V14.01,2013-03-30 19:00:00,
2013-03-30 15:04:00,51.6,35.5,29.97,West,265,0.0,6.0,54,0.00,,,0.00,VWS V14.01,2013-03-30 19:04:00,
2013-03-30 15:09:00,51.9,37.2,29.97,SSE,148,1.0,6.0,57,0.00,,,0.00,VWS V14.01,2013-03-30 19:09:00,
2013-03-30 15:14:00,51.9,35.8,29.97,SW,221,5.0,6.0,54,0.00,,,0.00,VWS V14.01,2013-03-30 19:14:00,
2013-03-30 15:19:00,51.4,35.8,29.96,South,174,4.0,8.0,55,0.00,,,0.00,VWS V14.01,2013-03-30 19:19:00,
2013-03-30 15:24:00,51.0,35.9,29.96,SE,138,3.0,8.0,56,0.00,,,0.00,VWS V14.01,2013-03-30 19:24:00,
2013-03-30 15:29:00,50.8,36.1,29.96,SSW,213,3.0,8.0,57,0.00,,,0.00,VWS V14.01,2013-03-30 19:29:00,
2013-03-30 15:30:00,50.9,35.8,29.96,SE,143,4.0,8.0,56,0.00,,,0.00,VWS V14.01,2013-03-30 19:30:00,
2013-03-30 15:34:00,50.8,35.7,29.96,South,169,6.0,7.0,56,0.00,,,0.00,VWS V14.01,2013-03-30 19:34:00,
2013-03-30 15:39:00,50.1,35.5,29.96,South,182,4.0,9.0,57,0.00,,,0.00,VWS V14.01,2013-03-30 19:39:00,
2013-03-30 15:44:00,49.7,36.8,29.97,West,269,3.0,11.0,61,0.00,,,0.00,VWS V14.01,2013-03-30 19:44:00,
2013-03-30 15:49:00,49.9,36.6,29.96,South,183,3.0,11.0,60,0.00,,,0.00,VWS V14.01,2013-03-30 19:49:00,
2013-03-30 15:54:00,49.8,36.1,29.96,South,178,3.0,11.0,59,0.00,,,0.00,VWS V14.01,2013-03-30 19:54:00,
2013-03-30 15:59:00,49.6,36.3,29.96,SSW,208,4.0,11.0,60,0.00,,,0.00,VWS V14.01,2013-03-30 19:59:00,
2013-03-30 16:00:00,49.7,36.0,29.96,South,186,2.0,11.0,59,0.00,,,0.00,VWS V14.01,2013-03-30 20:00:00,
2013-03-30 16:04:00,49.7,35.5,29.96,WSW,252,4.0,7.0,58,0.00,,,0.00,VWS V14.01,2013-03-30 20:04:00,
2013-03-30 16:09:00,49.8,36.1,29.96,SSE,165,1.0,7.0,59,0.00,,,0.00,VWS V14.01,2013-03-30 20:09:00,
2013-03-30 16:14:00,49.7,35.5,29.96,West,262,1.0,12.0,58,0.00,,,0.00,VWS V14.01,2013-03-30 20:14:00,
2013-03-30 16:19:00,49.4,35.7,29.96,South,171,1.0,12.0,59,0.00,,,0.00,VWS V14.01,2013-03-30 20:19:00,
2013-03-30 16:24:00,49.1,35.0,29.96,South,184,3.0,12.0,58,0.00,,,0.00,VWS V14.01,2013-03-30 20:24:00,
2013-03-30 16:29:00,49.2,35.5,29.96,SSE,150,4.0,12.0,59,0.00,,,0.00,VWS V14.01,2013-03-30 20:29:00,
2013-03-30 16:30:00,49.3,35.6,29.96,SW,217,1.0,12.0,59,0.00,,,0.00,VWS V14.01,2013-03-30 20:30:00,
2013-03-30 16:34:00,49.4,35.3,29.96,South,184,4.0,7.0,58,0.00,,,0.00,VWS V14.01,2013-03-30 20:34:00,
2013-03-30 16:39:00,49.5,34.9,29.96,SSW,212,5.0,8.0,57,0.00,,,0.00,VWS V14.01,2013-03-30 20:39:00,
2013-03-30 16:44:00,49.1,35.0,29.96,SW,214,7.0,9.0,58,0.00,,,0.00,VWS V14.01,2013-03-30 20:44:00,
2013-03-30 16:49:00,48.9,34.8,29.96,SSE,163,2.0,9.0,58,0.00,,,0.00,VWS V14.01,2013-03-30 20:49:00,
2013-03-30 16:54:00,48.6,34.5,29.96,South,178,3.0,9.0,58,0.00,,,0.00,VWS V14.01,2013-03-30 20:54:00,
2013-03-30 16:59:00,48.1,34.5,29.96,SSW,201,3.0,13.0,59,0.00,,,0.00,VWS V14.01,2013-03-30 20:59:00,
2013-03-30 17:00:00,48.1,34.5,29.96,SE,134,3.0,13.0,59,0.00,,,0.00,VWS V14.01,2013-03-30 21:00:00,
2013-03-30 17:04:00,47.9,34.3,29.96,SSW,198,6.0,10.0,59,0.00,,,0.00,VWS V14.01,2013-03-30 21:04:00,
2013-03-30 17:09:00,47.8,34.2,29.96,SSW,200,3.0,10.0,59,0.00,,,0.00,VWS V14.01,2013-03-30 21:09:00,
2013-03-30 17:14:00,47.9,34.7,29.96,WSW,244,10.0,10.0,60,0.00,,,0.00,VWS V14.01,2013-03-30 21:14:00,
2013-03-30 17:19:00,48.0,33.9,29.96,South,175,4.0,11.0,58,0.00,,,0.00,VWS V14.01,2013-03-30 21:19:00,
2013-03-30 17:24:00,48.1,34.0,29.96,SSW,201,7.0,15.0,58,0.00,,,0.00,VWS V14.01,2013-03-30 21:24:00,
2013-03-30 17:29:00,48.0,33.9,29.96,South,178,2.0,15.0,58,0.00,,,0.00,VWS V14.01,2013-03-30 21:29:00,
2013-03-30 17:30:00,48.1,34.0,29.96,South,191,5.0,15.0,58,0.00,,,0.00,VWS V14.01,2013-03-30 21:30:00,
2013-03-30 17:34:00,48.1,33.6,29.96,South,187,4.0,8.0,57,0.00,,,0.00,VWS V14.01,2013-03-30 21:34:00,
2013-03-30 17:39:00,48.0,33.5,29.96,SSE,155,4.0,8.0,57,0.00,,,0.00,VWS V14.01,2013-03-30 21:39:00,
2013-03-30 17:44:00,47.8,33.3,29.96,SSE,150,2.0,8.0,57,0.00,,,0.00,VWS V14.01,2013-03-30 21:44:00,
2013-03-30 17:49:00,47.7,33.7,29.96,SSW,196,1.0,9.0,58,0.00,,,0.00,VWS V14.01,2013-03-30 21:49:00,
2013-03-30 17:54:00,47.6,34.0,29.96,South,170,2.0,9.0,59,0.00,,,0.00,VWS V14.01,2013-03-30 21:54:00,
2013-03-30 18:00:00,47.6,34.8,29.97,West,263,3.0,9.0,61,0.00,,,0.00,VWS V14.01,2013-03-30 22:00:00,
2013-03-30 18:05:00,47.3,34.5,29.97,South,181,2.0,6.0,61,0.00,,,0.00,VWS V14.01,2013-03-30 22:05:00,
2013-03-30 18:10:00,47.0,34.7,29.97,ESE,118,5.0,8.0,62,0.00,,,0.00,VWS V14.01,2013-03-30 22:10:00,
2013-03-30 18:15:00,46.8,35.3,29.97,SSE,159,2.0,8.0,64,0.00,,,0.00,VWS V14.01,2013-03-30 22:15:00,
2013-03-30 18:20:00,46.5,35.4,29.97,SE,134,2.0,8.0,65,0.00,,,0.00,VWS V14.01,2013-03-30 22:20:00,
2013-03-30 18:25:00,46.1,35.4,29.97,SSW,201,4.0,8.0,66,0.00,,,0.00,VWS V14.01,2013-03-30 22:25:00,
2013-03-30 18:30:00,45.8,35.1,29.97,South,180,3.0,8.0,66,0.00,,,0.00,VWS V14.01,2013-03-30 22:30:00,
2013-03-30 18:35:00,45.6,35.3,29.97,ESE,121,2.0,6.0,67,0.00,,,0.00,VWS V14.01,2013-03-30 22:35:00,
2013-03-30 18:40:00,45.4,35.5,29.97,SE,127,4.0,6.0,68,0.00,,,0.00,VWS V14.01,2013-03-30 22:40:00,
2013-03-30 18:45:00,45.2,35.7,29.97,ESE,120,3.0,6.0,69,0.00,,,0.00,VWS V14.01,2013-03-30 22:45:00,
2013-03-30 18:50:00,45.1,35.2,29.97,South,175,2.0,6.0,68,0.00,,,0.00,VWS V14.01,2013-03-30 22:50:00,
2013-03-30 18:55:00,45.1,35.5,29.97,South,175,1.0,6.0,69,0.00,,,0.00,VWS V14.01,2013-03-30 22:55:00,
2013-03-30 19:00:00,44.9,35.4,29.98,SSE,148,2.0,6.0,69,0.00,,,0.00,VWS V14.01,2013-03-30 23:00:00,
2013-03-30 19:05:00,44.8,35.6,29.98,ESE,115,4.0,4.0,70,0.00,,,0.00,VWS V14.01,2013-03-30 23:05:00,
2013-03-30 19:10:00,44.7,35.9,29.98,SE,141,4.0,5.0,71,0.00,,,0.00,VWS V14.01,2013-03-30 23:10:00,
2013-03-30 19:15:00,44.5,36.0,29.98,SSE,148,2.0,5.0,72,0.00,,,0.00,VWS V14.01,2013-03-30 23:15:00,
2013-03-30 19:20:00,44.3,35.9,29.98,SSW,202,1.0,5.0,72,0.00,,,0.00,VWS V14.01,2013-03-30 23:20:00,
2013-03-30 19:25:00,44.2,36.1,29.98,South,179,3.0,5.0,73,0.00,,,0.00,VWS V14.01,2013-03-30 23:25:00,
2013-03-30 19:30:00,44.1,36.0,29.98,South,174,0.0,5.0,73,0.00,,,0.00,VWS V14.01,2013-03-30 23:30:00,
2013-03-30 19:35:00,43.9,36.2,29.98,South,171,2.0,4.0,74,0.00,,,0.00,VWS V14.01,2013-03-30 23:35:00,
2013-03-30 19:40:00,43.8,36.1,29.99,South,171,0.0,4.0,74,0.00,,,0.00,VWS V14.01,2013-03-30 23:40:00,
2013-03-30 19:45:00,43.7,36.0,29.99,South,185,1.0,4.0,74,0.00,,,0.00,VWS V14.01,2013-03-30 23:45:00,
2013-03-30 19:50:00,43.7,36.0,29.98,SSE,150,3.0,4.0,74,0.00,,,0.00,VWS V14.01,2013-03-30 23:50:00,
2013-03-30 19:55:00,43.8,36.1,29.99,SE,136,2.0,4.0,74,0.00,,,0.00,VWS V14.01,2013-03-30 23:55:00,
2013-03-30 20:00:00,43.7,36.0,29.99,South,191,1.0,4.0,74,0.00,,,0.00,VWS V14.01,2013-03-31 00:00:00,
2013-03-30 20:05:00,43.6,36.2,29.99,South,188,1.0,3.0,75,0.00,,,0.00,VWS V14.01,2013-03-31 00:05:00,
2013-03-30 20:10:00,43.4,36.3,30.00,South,188,2.0,3.0,76,0.00,,,0.00,VWS V14.01,2013-03-31 00:10:00,
2013-03-30 20:15:00,43.2,36.2,30.00,South,188,1.0,3.0,76,0.00,,,0.00,VWS V14.01,2013-03-31 00:15:00,
2013-03-30 20:20:00,42.9,35.5,30.00,South,188,0.0,3.0,75,0.00,,,0.00,VWS V14.01,2013-03-31 00:20:00,
2013-03-30 20:25:00,42.6,35.6,30.00,South,188,2.0,3.0,76,0.00,,,0.00,VWS V14.01,2013-03-31 00:25:00,
2013-03-30 20:30:00,42.4,35.4,30.00,South,188,1.0,4.0,76,0.00,,,0.00,VWS V14.01,2013-03-31 00:30:00,
2013-03-30 20:35:00,42.3,35.6,30.00,South,188,1.0,2.0,77,0.00,,,0.00,VWS V14.01,2013-03-31 00:35:00,
2013-03-30 20:40:00,42.2,35.8,30.00,South,188,0.0,3.0,78,0.00,,,0.00,VWS V14.01,2013-03-31 00:40:00,
2013-03-30 20:45:00,42.0,36.0,30.00,South,188,2.0,3.0,79,0.00,,,0.00,VWS V14.01,2013-03-31 00:45:00,
2013-03-30 20:50:00,41.8,35.8,30.00,South,188,0.0,3.0,79,0.00,,,0.00,VWS V14.01,2013-03-31 00:50:00,
2013-03-30 20:55:00,41.3,35.3,30.00,South,188,1.0,3.0,79,0.00,,,0.00,VWS V14.01,2013-03-31 00:55:00,
2013-03-30 21:00:00,41.0,35.3,30.00,South,188,0.0,3.0,80,0.00,,,0.00,VWS V14.01,2013-03-31 01:00:00,
2013-03-30 21:05:00,41.0,35.3,30.00,South,188,1.0,3.0,80,0.00,,,0.00,VWS V14.01,2013-03-31 01:05:00,
2013-03-30 21:10:00,40.7,35.0,30.01,South,188,1.0,3.0,80,0.00,,,0.00,VWS V14.01,2013-03-31 01:10:00,
2013-03-30 21:15:00,40.7,35.3,30.01,South,188,0.0,3.0,81,0.00,,,0.00,VWS V14.01,2013-03-31 01:15:00,
2013-03-30 21:20:00,40.6,35.2,30.01,South,188,1.0,3.0,81,0.00,,,0.00,VWS V14.01,2013-03-31 01:20:00,
2013-03-30 21:25:00,40.4,35.0,30.01,South,188,0.0,3.0,81,0.00,,,0.00,VWS V14.01,2013-03-31 01:25:00,
2013-03-30 21:30:00,40.2,35.2,30.02,South,188,0.0,3.0,82,0.00,,,0.00,VWS V14.01,2013-03-31 01:30:00,
2013-03-30 21:35:00,39.9,34.9,30.02,South,188,1.0,2.0,82,0.00,,,0.00,VWS V14.01,2013-03-31 01:35:00,
2013-03-30 21:40:00,39.5,34.8,30.02,South,188,0.0,2.0,83,0.00,,,0.00,VWS V14.01,2013-03-31 01:40:00,
2013-03-30 21:45:00,39.3,34.6,30.02,South,188,0.0,2.0,83,0.00,,,0.00,VWS V14.01,2013-03-31 01:45:00,
2013-03-30 21:50:00,39.0,34.3,30.02,South,188,0.0,2.0,83,0.00,,,0.00,VWS V14.01,2013-03-31 01:50:00,
2013-03-30 21:55:00,38.9,34.5,30.02,South,188,0.0,2.0,84,0.00,,,0.00,VWS V14.01,2013-03-31 01:55:00,
2013-03-30 22:00:00,38.8,34.7,30.02,South,188,0.0,2.0,85,0.00,,,0.00,VWS V14.01,2013-03-31 02:00:00,
2013-03-30 22:05:00,38.7,34.6,30.02,South,188,0.0,0.0,85,0.00,,,0.00,VWS V14.01,2013-03-31 02:05:00,
2013-03-30 22:10:00,38.6,34.5,30.02,South,188,0.0,0.0,85,0.00,,,0.00,VWS V14.01,2013-03-31 02:10:00,
2013-03-30 22:15:00,38.4,34.3,30.02,South,188,0.0,1.0,85,0.00,,,0.00,VWS V14.01,2013-03-31 02:15:00,
2013-03-30 22:20:00,38.1,34.3,30.02,South,188,0.0,1.0,86,0.00,,,0.00,VWS V14.01,2013-03-31 02:20:00,
2013-03-30 22:25:00,38.0,34.2,30.02,South,188,0.0,1.0,86,0.00,,,0.00,VWS V14.01,2013-03-31 02:25:00,
2013-03-30 22:30:00,37.8,34.0,30.02,South,188,0.0,1.0,86,0.00,,,0.00,VWS V14.01,2013-03-31 02:30:00,
2013-03-30 22:35:00,37.7,34.2,30.02,South,188,0.0,0.0,87,0.00,,,0.00,VWS V14.01,2013-03-31 02:35:00,
2013-03-30 22:40:00,37.5,34.0,30.02,South,188,0.0,0.0,87,0.00,,,0.00,VWS V14.01,2013-03-31 02:40:00,
2013-03-30 22:45:00,37.4,34.2,30.02,South,188,0.0,0.0,88,0.00,,,0.00,VWS V14.01,2013-03-31 02:45:00,
2013-03-30 22:50:00,37.2,34.0,30.02,South,188,0.0,0.0,88,0.00,,,0.00,VWS V14.01,2013-03-31 02:50:00,
2013-03-30 22:55:00,37.1,34.2,30.02,South,188,0.0,0.0,89,0.00,,,0.00,VWS V14.01,2013-03-31 02:55:00,
2013-03-30 23:00:00,37.0,33.8,30.02,South,188,0.0,0.0,88,0.00,,,0.00,VWS V14.01,2013-03-31 03:00:00,
2013-03-30 23:05:00,36.8,33.6,30.02,South,188,0.0,0.0,88,0.00,,,0.00,VWS V14.01,2013-03-31 03:05:00,
2013-03-30 23:10:00,36.6,33.7,30.02,South,188,0.0,0.0,89,0.00,,,0.00,VWS V14.01,2013-03-31 03:10:00,
2013-03-30 23:15:00,36.5,33.6,30.02,South,188,0.0,0.0,89,0.00,,,0.00,VWS V14.01,2013-03-31 03:15:00,
2013-03-30 23:20:00,36.4,33.5,30.02,South,188,0.0,0.0,89,0.00,,,0.00,VWS V14.01,2013-03-31 03:20:00,
2013-03-30 23:25:00,36.3,33.7,30.02,South,188,0.0,0.0,90,0.00,,,0.00,VWS V14.01,2013-03-31 03:25:00,
2013-03-30 23:30:00,36.3,33.7,30.02,South,188,0.0,1.0,90,0.00,,,0.00,VWS V14.01,2013-03-31 03:30:00,
2013-03-30 23:35:00,36.2,33.8,30.02,South,188,0.0,0.0,91,0.00,,,0.00,VWS V14.01,2013-03-31 03:35:00,
2013-03-30 23:40:00,36.1,33.5,30.02,South,188,0.0,0.0,90,0.00,,,0.00,VWS V14.01,2013-03-31 03:40:00,
2013-03-30 23:45:00,35.9,33.3,30.02,South,188,0.0,0.0,90,0.00,,,0.00,VWS V14.01,2013-03-31 03:45:00,
2013-03-30 23:50:00,35.7,33.3,30.02,South,188,0.0,0.0,91,0.00,,,0.00,VWS V14.01,2013-03-31 03:50:00,
2013-03-30 23:55:00,35.6,33.2,30.02,South,188,0.0,0.0,91,0.00,,,0.00,VWS V14.01,2013-03-31 03:55:00,